TimeCDT,TemperatureF,Dew PointF,Humidity,Sea Level PressureIn,VisibilityMPH,Wind Direction,Wind SpeedMPH,Gust SpeedMPH,PrecipitationIn,Events,Conditions,WindDirDegrees,DateUTC
12:14 AM,64.4,46.4,52,29.79,10.0,South,12.7,-,N/A,,Clear,170,2013-09-30 05:14:00
12:34 AM,64.4,46.4,52,29.79,10.0,South,13.8,-,N/A,,Clear,170,2013-09-30 05:34:00
12:54 AM,64.4,46.4,52,29.78,10.0,SSE,15.0,-,N/A,,Clear,160,2013-09-30 05:54:00
1:14 AM,62.6,46.4,55,29.77,10.0,South,12.7,-,N/A,,Clear,170,2013-09-30 06:14:00
1:34 AM,62.6,46.4,55,29.77,10.0,SSE,10.4,-,N/A,,Clear,160,2013-09-30 06:34:00
1:54 AM,60.8,46.4,59,29.78,10.0,South,9.2,-,N/A,,Clear,170,2013-09-30 06:54:00
2:14 AM,60.8,46.4,59,29.77,10.0,SSE,10.4,-,N/A,,Clear,160,2013-09-30 07:14:00
2:34 AM,62.6,46.4,55,29.76,10.0,SSE,10.4,-,N/A,,Clear,160,2013-09-30 07:34:00
2:54 AM,62.6,46.4,55,29.75,10.0,SSE,12.7,-,N/A,,Clear,150,2013-09-30 07:54:00
3:14 AM,62.6,46.4,55,29.74,10.0,SSE,12.7,-,N/A,,Clear,160,2013-09-30 08:14:00
3:34 AM,62.6,46.4,55,29.74,10.0,SSE,11.5,-,N/A,,Clear,160,2013-09-30 08:34:00
3:54 AM,62.6,46.4,55,29.73,10.0,SSE,13.8,18.4,N/A,,Clear,160,2013-09-30 08:54:00
4:14 AM,62.6,46.4,55,29.73,10.0,SSE,12.7,18.4,N/A,,Clear,160,2013-09-30 09:14:00
4:34 AM,62.6,46.4,55,29.72,10.0,SSE,11.5,-,N/A,,Clear,160,2013-09-30 09:34:00
4:54 AM,60.8,46.4,59,29.72,10.0,SSE,9.2,-,N/A,,Clear,150,2013-09-30 09:54:00
5:14 AM,60.8,46.4,59,29.71,10.0,SSE,11.5,19.6,N/A,,Clear,150,2013-09-30 10:14:00
5:34 AM,60.8,46.4,59,29.71,10.0,SSE,11.5,-,N/A,,Clear,160,2013-09-30 10:34:00
5:54 AM,57.2,46.4,67,29.72,10.0,SSE,9.2,-,N/A,,Clear,160,2013-09-30 10:54:00
6:13 AM,60.8,46.4,59,29.71,10.0,SSE,11.5,17.3,N/A,,Clear,160,2013-09-30 11:13:00
6:34 AM,60.8,46.4,59,29.70,10.0,SSE,10.4,-,N/A,,Clear,150,2013-09-30 11:34:00
6:45 AM,60.8,46.4,59,29.70,10.0,SSE,10.4,-,N/A,,Clear,160,2013-09-30 11:45:00
6:54 AM,59.0,48.2,67,29.70,10.0,SSE,9.2,-,N/A,,Clear,150,2013-09-30 11:54:00
7:45 AM,59.0,48.2,67,29.70,10.0,SSE,10.4,-,N/A,,Mostly Cloudy,160,2013-09-30 12:45:00
8:55 AM,62.6,50.0,63,29.70,10.0,South,11.5,-,N/A,,Mostly Cloudy,170,2013-09-30 13:55:00
9:55 AM,64.4,-9999,N/A,29.68,10.0,South,11.5,-,N/A,,Mostly Cloudy,170,2013-09-30 14:55:00
10:45 AM,69.8,50.0,49,29.67,10.0,SSE,18.4,24.2,N/A,,Overcast,160,2013-09-30 15:45:00
11:45 AM,71.6,50.0,46,29.67,10.0,South,17.3,20.7,N/A,,Mostly Cloudy,180,2013-09-30 16:45:00
12:45 PM,73.4,50.0,44,29.66,10.0,South,17.3,23.0,N/A,,Mostly Cloudy,190,2013-09-30 17:45:00
1:45 PM,75.2,50.0,41,29.64,10.0,South,17.3,26.5,N/A,,Mostly Cloudy,190,2013-09-30 18:45:00
2:45 PM,78.8,51.8,39,29.62,10.0,South,17.3,26.5,N/A,,Mostly Cloudy,190,2013-09-30 19:45:00
3:45 PM,80.6,51.8,37,29.61,10.0,South,17.3,26.5,N/A,,Clear,180,2013-09-30 20:45:00
4:45 PM,80.6,50.0,34,29.61,10.0,South,17.3,26.5,N/A,,Clear,180,2013-09-30 21:45:00
5:45 PM,78.8,60.8,54,29.60,10.0,South,13.8,23.0,N/A,,Clear,180,2013-09-30 22:45:00
6:45 PM,75.2,51.8,44,29.61,10.0,South,13.8,20.7,N/A,,Partly Cloudy,170,2013-09-30 23:45:00
7:45 PM,71.6,51.8,50,29.62,10.0,SSE,10.4,16.1,N/A,,Partly Cloudy,150,2013-10-01 00:45:00
8:45 PM,71.6,51.8,50,29.63,10.0,SSE,10.4,16.1,N/A,,Partly Cloudy,150,2013-10-01 01:45:00
9:14 PM,69.8,51.8,53,29.63,10.0,SSE,12.7,-,N/A,,Clear,160,2013-10-01 02:14:00
9:34 PM,69.8,51.8,53,29.64,10.0,South,11.5,-,N/A,,Clear,170,2013-10-01 02:34:00
9:45 PM,69.8,51.8,53,29.64,10.0,South,10.4,-,N/A,,Partly Cloudy,170,2013-10-01 02:45:00
9:54 PM,69.8,51.8,53,29.63,10.0,SSE,10.4,-,N/A,,Clear,160,2013-10-01 02:54:00
10:14 PM,68.0,51.8,56,29.64,10.0,South,10.4,-,N/A,,Clear,170,2013-10-01 03:14:00
10:34 PM,68.0,51.8,56,29.63,10.0,South,10.4,-,N/A,,Clear,170,2013-10-01 03:34:00
10:54 PM,68.0,51.8,56,29.63,10.0,South,10.4,-,N/A,,Clear,170,2013-10-01 03:54:00
11:14 PM,68.0,51.8,56,29.63,10.0,South,11.5,-,N/A,,Clear,170,2013-10-01 04:14:00
11:34 PM,68.0,51.8,56,29.63,10.0,South,11.5,-,N/A,,Clear,170,2013-10-01 04:34:00
11:54 PM,69.8,51.8,53,29.62,10.0,South,16.1,20.7,N/A,,Clear,180,2013-10-01 04:54:00